^^
Station Historical Data
Daily Summary for March 31, 2019 Units:  English    Metric   Both
« Previous Day
Next Day »
Daily Weekly Monthly Yearly Custom
  High: Low: Average:
Temperature: 44.4 °F 27.9 °F 35.1 °F
Dew Point: 33.1 °F 21.2 °F 27 °F
Humidity: 83% 62% 73%
Wind Speed: 27.0mph 2.0mph 9.9mph
Wind Gust: 30.0mph - -
Wind- - SSE
Pressure: 30.26 in 30.06 in -
Precipitation: 0.00 in    
Historical Graphs
 
 
Tabular Data for March 31, 2019
Time Temperature Dew Point Pressure Wind Wind Speed Wind Gust Humidity Rainfall Rate (Hourly) solar Conditions
00:04 28.9 °F 21.3 °F 30.26 in SSE 8.0 mph 13.0 mph 73% 0.00 in 0.00 W/m2
00:09 28.8 °F 21.2 °F 30.26 in SE 8.0 mph 12.0 mph 73% 0.00 in 0.00 W/m2
00:14 28.6 °F 21.4 °F 30.26 in SE 10.0 mph 13.0 mph 74% 0.00 in 0.00 W/m2
00:19 28.5 °F 21.6 °F 30.26 in SE 9.0 mph 13.0 mph 75% 0.00 in 0.00 W/m2
00:24 28.4 °F 21.5 °F 30.26 in SE 8.0 mph 13.0 mph 75% 0.00 in 0.00 W/m2
00:29 28.3 °F 21.4 °F 30.26 in SE 10.0 mph 12.0 mph 75% 0.00 in 0.00 W/m2
00:34 28.3 °F 21.7 °F 30.26 in SE 6.0 mph 13.0 mph 76% 0.00 in 0.00 W/m2
00:39 28.3 °F 21.7 °F 30.25 in SE 8.0 mph 13.0 mph 76% 0.00 in 0.00 W/m2
00:44 28.4 °F 21.8 °F 30.25 in SE 11.0 mph 13.0 mph 76% 0.00 in 0.00 W/m2
00:49 28.4 °F 22.1 °F 30.25 in SE 9.0 mph 13.0 mph 77% 0.00 in 0.00 W/m2
00:54 28.4 °F 21.8 °F 30.25 in SE 12.0 mph 12.0 mph 76% 0.00 in 0.00 W/m2
00:59 28.3 °F 21.7 °F 30.24 in SE 9.0 mph 13.0 mph 76% 0.00 in 0.00 W/m2
01:04 28.2 °F 21.9 °F 30.25 in SE 8.0 mph 13.0 mph 77% 0.00 in 0.00 W/m2
01:09 28.0 °F 21.7 °F 30.24 in SE 9.0 mph 11.0 mph 77% 0.00 in 0.00 W/m2
01:14 28.0 °F 21.7 °F 30.23 in SE 12.0 mph 13.0 mph 77% 0.00 in 0.00 W/m2
01:19 27.9 °F 21.6 °F 30.23 in SE 8.0 mph 13.0 mph 77% 0.00 in 0.00 W/m2
01:24 28.0 °F 21.7 °F 30.23 in SSE 9.0 mph 13.0 mph 77% 0.00 in 0.00 W/m2
01:29 28.0 °F 21.7 °F 30.23 in SE 9.0 mph 13.0 mph 77% 0.00 in 0.00 W/m2
01:34 28.0 °F 22.0 °F 30.23 in SE 10.0 mph 12.0 mph 78% 0.00 in 0.00 W/m2
01:39 28.0 °F 22.0 °F 30.23 in SE 11.0 mph 14.0 mph 78% 0.00 in 0.00 W/m2
01:44 28.0 °F 22.0 °F 30.23 in SE 10.0 mph 14.0 mph 78% 0.00 in 0.00 W/m2
01:49 28.1 °F 22.1 °F 30.22 in SE 9.0 mph 12.0 mph 78% 0.00 in 0.00 W/m2
01:54 28.1 °F 22.1 °F 30.22 in SSE 6.0 mph 12.0 mph 78% 0.00 in 0.00 W/m2
01:59 28.1 °F 22.1 °F 30.22 in SE 10.0 mph 13.0 mph 78% 0.00 in 0.00 W/m2
02:04 28.2 °F 22.2 °F 30.22 in SE 6.0 mph 13.0 mph 78% 0.00 in 0.00 W/m2
02:09 28.2 °F 22.2 °F 30.22 in SE 6.0 mph 13.0 mph 78% 0.00 in 0.00 W/m2
02:14 28.3 °F 22.3 °F 30.22 in SE 7.0 mph 12.0 mph 78% 0.00 in 0.00 W/m2
02:19 28.3 °F 22.3 °F 30.21 in ESE 12.0 mph 12.0 mph 78% 0.00 in 0.00 W/m2
02:24 28.3 °F 22.3 °F 30.21 in SE 8.0 mph 12.0 mph 78% 0.00 in 0.00 W/m2
02:29 28.3 °F 22.6 °F 30.21 in SE 8.0 mph 12.0 mph 79% 0.00 in 0.00 W/m2
02:34 28.3 °F 22.6 °F 30.21 in SSE 7.0 mph 9.0 mph 79% 0.00 in 0.00 W/m2
02:39 28.3 °F 22.6 °F 30.20 in SE 7.0 mph 9.0 mph 79% 0.00 in 0.00 W/m2
02:44 28.4 °F 22.7 °F 30.20 in SE 7.0 mph 9.0 mph 79% 0.00 in 0.00 W/m2
02:49 28.4 °F 22.4 °F 30.20 in SE 4.0 mph 10.0 mph 78% 0.00 in 0.00 W/m2
02:54 28.5 °F 22.5 °F 30.19 in ESE 7.0 mph 10.0 mph 78% 0.00 in 0.00 W/m2
02:59 28.5 °F 22.5 °F 30.20 in ESE 7.0 mph 10.0 mph 78% 0.00 in 0.00 W/m2
03:04 28.6 °F 22.9 °F 30.19 in ESE 8.0 mph 10.0 mph 79% 0.00 in 0.00 W/m2
03:09 28.7 °F 23.0 °F 30.19 in ESE 8.0 mph 10.0 mph 79% 0.00 in 0.00 W/m2
03:14 28.7 °F 22.7 °F 30.19 in ESE 4.0 mph 10.0 mph 78% 0.00 in 0.00 W/m2
03:19 28.8 °F 22.8 °F 30.18 in SE 7.0 mph 10.0 mph 78% 0.00 in 0.00 W/m2
03:24 28.9 °F 22.9 °F 30.18 in SE 7.0 mph 10.0 mph 78% 0.00 in 0.00 W/m2
03:29 29.0 °F 23.0 °F 30.18 in SSE 8.0 mph 10.0 mph 78% 0.00 in 0.00 W/m2
03:34 29.0 °F 23.0 °F 30.18 in ESE 5.0 mph 10.0 mph 78% 0.00 in 0.00 W/m2
03:39 29.1 °F 23.1 °F 30.17 in SE 6.0 mph 9.0 mph 78% 0.00 in 0.00 W/m2
03:44 29.2 °F 23.2 °F 30.17 in ESE 5.0 mph 9.0 mph 78% 0.00 in 0.00 W/m2
03:49 29.2 °F 23.2 °F 30.16 in ESE 5.0 mph 9.0 mph 78% 0.00 in 0.00 W/m2
03:54 29.2 °F 23.2 °F 30.16 in ESE 4.0 mph 9.0 mph 78% 0.00 in 0.00 W/m2
03:59 29.1 °F 23.1 °F 30.16 in ESE 8.0 mph 9.0 mph 78% 0.00 in 0.00 W/m2
04:04 29.0 °F 23.3 °F 30.16 in ESE 8.0 mph 9.0 mph 79% 0.00 in 0.00 W/m2
04:09 29.1 °F 23.1 °F 30.16 in East 8.0 mph 10.0 mph 78% 0.00 in 0.00 W/m2
04:14 29.2 °F 23.2 °F 30.15 in ESE 7.0 mph 10.0 mph 78% 0.00 in 0.00 W/m2
04:19 29.4 °F 23.1 °F 30.15 in ESE 7.0 mph 10.0 mph 77% 0.00 in 0.00 W/m2
04:24 29.5 °F 23.2 °F 30.14 in ESE 7.0 mph 10.0 mph 77% 0.00 in 0.00 W/m2
04:29 29.5 °F 23.5 °F 30.14 in SE 6.0 mph 10.0 mph 78% 0.00 in 0.00 W/m2
04:34 29.4 °F 23.4 °F 30.14 in ESE 9.0 mph 10.0 mph 78% 0.00 in 0.00 W/m2
04:39 29.5 °F 23.5 °F 30.14 in SE 6.0 mph 9.0 mph 78% 0.00 in 0.00 W/m2
04:44 29.6 °F 23.6 °F 30.14 in SE 7.0 mph 9.0 mph 78% 0.00 in 0.00 W/m2
04:49 29.7 °F 23.4 °F 30.13 in ESE 9.0 mph 10.0 mph 77% 0.00 in 0.00 W/m2
04:54 29.7 °F 23.4 °F 30.13 in ESE 8.0 mph 10.0 mph 77% 0.00 in 0.00 W/m2
04:59 29.7 °F 23.4 °F 30.13 in SE 7.0 mph 10.0 mph 77% 0.00 in 0.00 W/m2
05:04 29.6 °F 23.6 °F 30.12 in SE 6.0 mph 10.0 mph 78% 0.00 in 0.00 W/m2
05:09 29.6 °F 23.6 °F 30.12 in SE 6.0 mph 10.0 mph 78% 0.00 in 0.00 W/m2
05:14 29.8 °F 23.8 °F 30.12 in SE 5.0 mph 9.0 mph 78% 0.00 in 0.00 W/m2
05:19 29.8 °F 23.8 °F 30.11 in SSE 9.0 mph 9.0 mph 78% 0.00 in 0.00 W/m2
05:24 30.1 °F 23.8 °F 30.11 in SSE 9.0 mph 10.0 mph 77% 0.00 in 0.00 W/m2
05:29 30.3 °F 24.0 °F 30.11 in SE 9.0 mph 11.0 mph 77% 0.00 in 0.00 W/m2
05:34 30.4 °F 23.7 °F 30.11 in SSE 6.0 mph 11.0 mph 76% 0.00 in 0.00 W/m2
05:39 30.4 °F 23.7 °F 30.11 in SSE 5.0 mph 10.0 mph 76% 0.00 in 0.00 W/m2
05:44 30.4 °F 23.7 °F 30.10 in SE 7.0 mph 10.0 mph 76% 0.00 in 0.00 W/m2
05:49 30.5 °F 23.5 °F 30.10 in SE 8.0 mph 9.0 mph 75% 0.00 in 0.00 W/m2
05:54 30.4 °F 23.7 °F 30.10 in SE 7.0 mph 9.0 mph 76% 0.00 in 0.00 W/m2
05:59 30.5 °F 23.8 °F 30.10 in SSE 6.0 mph 10.0 mph 76% 0.00 in 0.00 W/m2
06:04 30.5 °F 23.8 °F 30.10 in SSE 7.0 mph 10.0 mph 76% 0.00 in 0.00 W/m2
06:09 30.4 °F 23.7 °F 30.10 in SSE 8.0 mph 10.0 mph 76% 0.00 in 0.00 W/m2
06:14 30.3 °F 23.6 °F 30.10 in SSE 8.0 mph 10.0 mph 76% 0.00 in 0.00 W/m2
06:19 30.4 °F 23.7 °F 30.09 in South 9.0 mph 10.0 mph 76% 0.00 in 0.00 W/m2
06:24 30.3 °F 23.6 °F 30.10 in South 7.0 mph 9.0 mph 76% 0.00 in 0.00 W/m2
06:29 30.4 °F 23.7 °F 30.09 in SSE 6.0 mph 9.0 mph 76% 0.00 in 0.00 W/m2
06:34 30.4 °F 23.7 °F 30.09 in SSE 6.0 mph 8.0 mph 76% 0.00 in 0.00 W/m2
06:39 30.2 °F 23.5 °F 30.09 in SSE 6.0 mph 8.0 mph 76% 0.00 in 0.00 W/m2
06:44 30.0 °F 23.4 °F 30.09 in SE 5.0 mph 7.0 mph 76% 0.00 in 0.00 W/m2
06:49 29.8 °F 23.2 °F 30.09 in SSE 5.0 mph 6.0 mph 76% 0.00 in 0.00 W/m2
06:54 29.7 °F 23.4 °F 30.09 in SSE 7.0 mph 7.0 mph 77% 0.00 in 0.00 W/m2
06:59 29.7 °F 23.4 °F 30.09 in South 6.0 mph 7.0 mph 77% 0.00 in 0.00 W/m2
07:04 29.7 °F 23.4 °F 30.09 in South 4.0 mph 8.0 mph 77% 0.00 in 0.00 W/m2
07:09 29.8 °F 23.5 °F 30.09 in SSE 6.0 mph 9.0 mph 77% 0.00 in 0.00 W/m2
07:14 30.0 °F 23.7 °F 30.08 in South 7.0 mph 9.0 mph 77% 0.00 in 0.00 W/m2
07:19 30.2 °F 23.9 °F 30.08 in South 8.0 mph 9.0 mph 77% 0.00 in 0.00 W/m2
07:24 30.5 °F 23.8 °F 30.08 in South 6.0 mph 9.0 mph 76% 0.00 in 5.00 W/m2
07:29 30.4 °F 23.7 °F 30.08 in South 3.0 mph 9.0 mph 76% 0.00 in 7.00 W/m2
07:34 30.3 °F 23.6 °F 30.08 in SSE 4.0 mph 7.0 mph 76% 0.00 in 11.00 W/m2
07:39 30.1 °F 23.4 °F 30.08 in South 3.0 mph 6.0 mph 76% 0.00 in 14.00 W/m2
07:44 30.1 °F 23.8 °F 30.08 in South 3.0 mph 6.0 mph 77% 0.00 in 19.00 W/m2
07:49 30.2 °F 23.9 °F 30.08 in South 3.0 mph 6.0 mph 77% 0.00 in 25.00 W/m2
07:54 30.6 °F 24.6 °F 30.08 in South 3.0 mph 5.0 mph 78% 0.00 in 28.00 W/m2
07:59 31.0 °F 24.6 °F 30.08 in South 4.0 mph 5.0 mph 77% 0.00 in 35.00 W/m2
08:04 31.3 °F 24.9 °F 30.08 in SW 3.0 mph 5.0 mph 77% 0.00 in 37.00 W/m2
08:09 31.8 °F 25.7 °F 30.08 in SW 4.0 mph 8.0 mph 78% 0.00 in 32.00 W/m2
08:14 32.6 °F 25.9 °F 30.07 in SW 4.0 mph 8.0 mph 76% 0.00 in 28.00 W/m2
08:19 33.0 °F 25.9 °F 30.07 in WSW 5.0 mph 7.0 mph 75% 0.00 in 32.00 W/m2
08:24 33.3 °F 26.2 °F 30.07 in WSW 5.0 mph 7.0 mph 75% 0.00 in 33.00 W/m2
08:29 33.4 °F 26.3 °F 30.07 in WSW 5.0 mph 6.0 mph 75% 0.00 in 104.00 W/m2
08:34 33.5 °F 26.4 °F 30.07 in WSW 4.0 mph 5.0 mph 75% 0.00 in 116.00 W/m2
08:39 34.1 °F 26.7 °F 30.07 in WSW 2.0 mph 5.0 mph 74% 0.00 in 127.00 W/m2
08:44 34.6 °F 27.2 °F 30.07 in WSW 2.0 mph 5.0 mph 74% 0.00 in 149.00 W/m2
08:49 35.2 °F 27.4 °F 30.08 in West 4.0 mph 6.0 mph 73% 0.00 in 185.00 W/m2
08:54 35.6 °F 27.5 °F 30.08 in West 4.0 mph 6.0 mph 72% 0.00 in 204.00 W/m2
08:59 36.1 °F 27.6 °F 30.08 in West 4.0 mph 6.0 mph 71% 0.00 in 223.00 W/m2
09:04 36.4 °F 27.9 °F 30.07 in West 5.0 mph 6.0 mph 71% 0.00 in 241.00 W/m2
09:09 36.8 °F 28.3 °F 30.07 in West 6.0 mph 6.0 mph 71% 0.00 in 257.00 W/m2
09:14 37.3 °F 28.4 °F 30.07 in West 5.0 mph 9.0 mph 70% 0.00 in 271.00 W/m2
09:19 37.9 °F 29.0 °F 30.07 in West 9.0 mph 10.0 mph 70% 0.00 in 287.00 W/m2
09:24 38.5 °F 29.2 °F 30.07 in West 7.0 mph 11.0 mph 69% 0.00 in 297.00 W/m2
09:29 39.1 °F 29.8 °F 30.07 in West 10.0 mph 18.0 mph 69% 0.00 in 276.00 W/m2
09:34 39.5 °F 29.8 °F 30.07 in West 10.0 mph 18.0 mph 68% 0.00 in 271.00 W/m2
09:39 39.7 °F 30.4 °F 30.07 in WNW 11.0 mph 18.0 mph 69% 0.00 in 336.00 W/m2
09:44 40.2 °F 30.5 °F 30.07 in WNW 14.0 mph 18.0 mph 68% 0.00 in 364.00 W/m2
09:49 40.6 °F 30.9 °F 30.07 in WNW 9.0 mph 17.0 mph 68% 0.00 in 376.00 W/m2
09:54 40.9 °F 30.8 °F 30.07 in WNW 12.0 mph 18.0 mph 67% 0.00 in 390.00 W/m2
09:59 41.2 °F 31.1 °F 30.07 in WNW 16.0 mph 22.0 mph 67% 0.00 in 404.00 W/m2
10:04 40.9 °F 30.8 °F 30.07 in NW 12.0 mph 22.0 mph 67% 0.00 in 420.00 W/m2
10:09 40.9 °F 31.1 °F 30.07 in NW 20.0 mph 21.0 mph 68% 0.00 in 434.00 W/m2
10:14 40.6 °F 31.2 °F 30.07 in WNW 16.0 mph 22.0 mph 69% 0.00 in 448.00 W/m2
10:19 40.9 °F 31.5 °F 30.06 in WNW 14.0 mph 22.0 mph 69% 0.00 in 461.00 W/m2
10:24 40.7 °F 31.3 °F 30.07 in NW 22.0 mph 24.0 mph 69% 0.00 in 459.00 W/m2
10:29 40.7 °F 31.7 °F 30.07 in NW 18.0 mph 24.0 mph 70% 0.00 in 455.00 W/m2
10:34 40.4 °F 31.7 °F 30.07 in WNW 14.0 mph 23.0 mph 71% 0.00 in 450.00 W/m2
10:39 40.5 °F 31.8 °F 30.07 in NW 22.0 mph 24.0 mph 71% 0.00 in 438.00 W/m2
10:44 40.3 °F 31.6 °F 30.06 in NW 17.0 mph 26.0 mph 71% 0.00 in 431.00 W/m2
10:49 40.7 °F 32.4 °F 30.07 in NW 21.0 mph 26.0 mph 72% 0.00 in 411.00 W/m2
10:54 40.3 °F 31.6 °F 30.07 in NW 21.0 mph 25.0 mph 71% 0.00 in 429.00 W/m2
10:59 40.2 °F 32.2 °F 30.07 in NW 15.0 mph 26.0 mph 73% 0.00 in 459.00 W/m2
11:04 40.4 °F 32.4 °F 30.07 in NW 17.0 mph 26.0 mph 73% 0.00 in 476.00 W/m2
11:09 40.4 °F 32.1 °F 30.07 in WNW 18.0 mph 24.0 mph 72% 0.00 in 471.00 W/m2
11:14 40.3 °F 32.3 °F 30.07 in NW 21.0 mph 24.0 mph 73% 0.00 in 513.00 W/m2
11:19 40.1 °F 32.5 °F 30.08 in NW 15.0 mph 22.0 mph 74% 0.00 in 529.00 W/m2
11:24 40.3 °F 32.7 °F 30.09 in NW 12.0 mph 21.0 mph 74% 0.00 in 668.00 W/m2
11:29 39.8 °F 32.2 °F 30.09 in NW 10.0 mph 23.0 mph 74% 0.00 in 715.00 W/m2
11:34 39.4 °F 32.8 °F 30.09 in NW 13.0 mph 23.0 mph 77% 0.00 in 591.00 W/m2
11:39 38.7 °F 31.5 °F 30.09 in NW 11.0 mph 22.0 mph 75% 0.00 in 585.00 W/m2
11:44 39.0 °F 32.7 °F 30.09 in NNW 13.0 mph 23.0 mph 78% 0.00 in 875.00 W/m2
11:49 38.7 °F 31.8 °F 30.09 in NNW 13.0 mph 23.0 mph 76% 0.00 in 557.00 W/m2
11:54 38.3 °F 31.7 °F 30.09 in NNW 13.0 mph 23.0 mph 77% 0.00 in 475.00 W/m2
11:59 38.4 °F 31.8 °F 30.09 in NW 15.0 mph 25.0 mph 77% 0.00 in 691.00 W/m2
12:04 38.8 °F 31.6 °F 30.09 in NW 16.0 mph 26.0 mph 75% 0.00 in 707.00 W/m2
12:09 39.1 °F 31.2 °F 30.09 in NW 21.0 mph 26.0 mph 73% 0.00 in 701.00 W/m2
12:14 39.4 °F 31.5 °F 30.09 in NW 15.0 mph 24.0 mph 73% 0.00 in 710.00 W/m2
12:19 39.7 °F 31.4 °F 30.09 in NNW 17.0 mph 24.0 mph 72% 0.00 in 714.00 W/m2
12:24 40.4 °F 31.7 °F 30.09 in NNW 22.0 mph 24.0 mph 71% 0.00 in 722.00 W/m2
12:29 40.5 °F 30.8 °F 30.09 in NW 15.0 mph 25.0 mph 68% 0.00 in 726.00 W/m2
12:34 41.1 °F 31.0 °F 30.10 in NNW 15.0 mph 25.0 mph 67% 0.00 in 737.00 W/m2
12:39 41.6 °F 31.4 °F 30.10 in NNW 21.0 mph 24.0 mph 67% 0.00 in 740.00 W/m2
12:44 41.9 °F 30.2 °F 30.10 in NNW 18.0 mph 23.0 mph 63% 0.00 in 745.00 W/m2
12:49 42.0 °F 30.3 °F 30.10 in North 16.0 mph 22.0 mph 63% 0.00 in 752.00 W/m2
12:54 42.1 °F 30.4 °F 30.10 in North 18.0 mph 22.0 mph 63% 0.00 in 754.00 W/m2
12:59 42.3 °F 30.6 °F 30.11 in NNW 18.0 mph 22.0 mph 63% 0.00 in 761.00 W/m2
13:04 42.2 °F 30.5 °F 30.10 in North 16.0 mph 24.0 mph 63% 0.00 in 761.00 W/m2
13:09 42.2 °F 30.1 °F 30.10 in NNW 16.0 mph 26.0 mph 62% 0.00 in 768.00 W/m2
13:14 42.3 °F 30.2 °F 30.10 in NNE 17.0 mph 26.0 mph 62% 0.00 in 768.00 W/m2
13:19 42.5 °F 30.8 °F 30.11 in North 27.0 mph 30.0 mph 63% 0.00 in 772.00 W/m2
13:24 42.7 °F 30.6 °F 30.10 in North 27.0 mph 30.0 mph 62% 0.00 in 775.00 W/m2
13:29 42.9 °F 31.6 °F 30.11 in NNW 21.0 mph 28.0 mph 64% 0.00 in 777.00 W/m2
13:34 43.5 °F 31.7 °F 30.11 in North 17.0 mph 27.0 mph 63% 0.00 in 775.00 W/m2
13:39 43.9 °F 31.7 °F 30.11 in NNE 24.0 mph 27.0 mph 62% 0.00 in 779.00 W/m2
13:44 44.0 °F 32.2 °F 30.11 in NNW 17.0 mph 27.0 mph 63% 0.00 in 889.00 W/m2
13:49 42.9 °F 30.8 °F 30.11 in North 17.0 mph 28.0 mph 62% 0.00 in 185.00 W/m2
13:54 42.8 °F 31.8 °F 30.11 in North 23.0 mph 28.0 mph 65% 0.00 in 819.00 W/m2
13:59 43.7 °F 32.3 °F 30.11 in North 25.0 mph 29.0 mph 64% 0.00 in 865.00 W/m2
14:04 43.8 °F 32.4 °F 30.12 in NNE 21.0 mph 29.0 mph 64% 0.00 in 821.00 W/m2
14:09 44.1 °F 32.7 °F 30.12 in NNE 15.0 mph 29.0 mph 64% 0.00 in 840.00 W/m2
14:14 44.4 °F 33.0 °F 30.12 in North 21.0 mph 29.0 mph 64% 0.00 in 912.00 W/m2
14:19 44.1 °F 32.3 °F 30.12 in North 16.0 mph 27.0 mph 63% 0.00 in 345.00 W/m2
14:24 44.1 °F 33.1 °F 30.12 in North 15.0 mph 26.0 mph 65% 0.00 in 991.00 W/m2
14:29 43.8 °F 32.4 °F 30.12 in North 16.0 mph 23.0 mph 64% 0.00 in 350.00 W/m2
14:34 42.9 °F 31.6 °F 30.12 in North 14.0 mph 26.0 mph 64% 0.00 in 299.00 W/m2
14:39 42.8 °F 31.5 °F 30.12 in NNE 11.0 mph 27.0 mph 64% 0.00 in 221.00 W/m2
14:44 42.5 °F 31.2 °F 30.13 in North 20.0 mph 27.0 mph 64% 0.00 in 250.00 W/m2
14:49 42.9 °F 32.7 °F 30.13 in North 16.0 mph 25.0 mph 67% 0.00 in 250.00 W/m2
14:54 43.1 °F 31.4 °F 30.13 in NNW 17.0 mph 23.0 mph 63% 0.00 in 258.00 W/m2
14:59 42.9 °F 31.2 °F 30.13 in North 18.0 mph 25.0 mph 63% 0.00 in 258.00 W/m2
15:04 42.9 °F 31.2 °F 30.13 in NNE 17.0 mph 26.0 mph 63% 0.00 in 220.00 W/m2
15:09 42.7 °F 31.4 °F 30.13 in NNE 21.0 mph 26.0 mph 64% 0.00 in 385.00 W/m2
15:14 42.6 °F 30.9 °F 30.13 in North 15.0 mph 23.0 mph 63% 0.00 in 336.00 W/m2
15:19 42.8 °F 31.1 °F 30.13 in North 15.0 mph 23.0 mph 63% 0.00 in 329.00 W/m2
15:24 42.4 °F 31.1 °F 30.13 in North 13.0 mph 22.0 mph 64% 0.00 in 237.00 W/m2
15:29 42.2 °F 31.6 °F 30.13 in NNE 18.0 mph 22.0 mph 66% 0.00 in 299.00 W/m2
15:34 42.1 °F 30.8 °F 30.13 in North 21.0 mph 22.0 mph 64% 0.00 in 274.00 W/m2
15:39 42.0 °F 31.1 °F 30.14 in North 14.0 mph 24.0 mph 65% 0.00 in 399.00 W/m2
15:44 41.8 °F 30.5 °F 30.14 in North 22.0 mph 24.0 mph 64% 0.00 in 223.00 W/m2
15:49 41.2 °F 29.5 °F 30.14 in North 17.0 mph 25.0 mph 63% 0.00 in 220.00 W/m2
15:54 40.7 °F 29.1 °F 30.14 in NE 13.0 mph 25.0 mph 63% 0.00 in 227.00 W/m2
15:59 40.7 °F 29.5 °F 30.14 in NNE 18.0 mph 23.0 mph 64% 0.00 in 227.00 W/m2
16:04 40.8 °F 29.9 °F 30.14 in NNE 15.0 mph 19.0 mph 65% 0.00 in 241.00 W/m2
16:09 40.8 °F 29.6 °F 30.14 in NNE 12.0 mph 22.0 mph 64% 0.00 in 200.00 W/m2
16:14 40.6 °F 29.7 °F 30.14 in NNE 13.0 mph 22.0 mph 65% 0.00 in 167.00 W/m2
16:19 40.4 °F 29.6 °F 30.14 in North 13.0 mph 20.0 mph 65% 0.00 in 135.00 W/m2
16:24 40.1 °F 29.6 °F 30.14 in North 13.0 mph 19.0 mph 66% 0.00 in 148.00 W/m2
16:29 40.0 °F 29.6 °F 30.15 in NNE 16.0 mph 18.0 mph 66% 0.00 in 111.00 W/m2
16:34 39.7 °F 29.6 °F 30.14 in North 14.0 mph 20.0 mph 67% 0.00 in 91.00 W/m2
16:39 39.5 °F 29.4 °F 30.14 in North 11.0 mph 20.0 mph 67% 0.00 in 93.00 W/m2
16:44 39.4 °F 30.1 °F 30.14 in North 11.0 mph 20.0 mph 69% 0.00 in 142.00 W/m2
16:49 39.5 °F 30.2 °F 30.14 in NNW 10.0 mph 16.0 mph 69% 0.00 in 149.00 W/m2
16:54 39.3 °F 29.6 °F 30.15 in North 11.0 mph 23.0 mph 68% 0.00 in 95.00 W/m2
16:59 39.1 °F 29.4 °F 30.15 in NNE 10.0 mph 23.0 mph 68% 0.00 in 128.00 W/m2
17:04 39.1 °F 29.1 °F 30.15 in North 9.0 mph 17.0 mph 67% 0.00 in 128.00 W/m2
17:09 39.1 °F 29.1 °F 30.15 in North 7.0 mph 17.0 mph 67% 0.00 in 123.00 W/m2
17:14 39.1 °F 29.8 °F 30.15 in North 8.0 mph 16.0 mph 69% 0.00 in 95.00 W/m2
17:19 38.9 °F 29.2 °F 30.15 in North 14.0 mph 18.0 mph 68% 0.00 in 76.00 W/m2
17:24 38.8 °F 29.1 °F 30.16 in North 12.0 mph 18.0 mph 68% 0.00 in 84.00 W/m2
17:29 38.7 °F 29.4 °F 30.16 in NNE 14.0 mph 17.0 mph 69% 0.00 in 104.00 W/m2
17:34 38.6 °F 29.3 °F 30.16 in NNE 10.0 mph 17.0 mph 69% 0.00 in 90.00 W/m2
17:39 38.6 °F 29.7 °F 30.16 in North 18.0 mph 19.0 mph 70% 0.00 in 84.00 W/m2
17:44 38.4 °F 29.1 °F 30.16 in North 15.0 mph 20.0 mph 69% 0.00 in 67.00 W/m2
17:49 38.2 °F 29.3 °F 30.16 in NNE 10.0 mph 19.0 mph 70% 0.00 in 91.00 W/m2
17:54 38.2 °F 28.9 °F 30.16 in NNE 14.0 mph 19.0 mph 69% 0.00 in 128.00 W/m2
17:59 38.1 °F 28.5 °F 30.16 in NNE 10.0 mph 20.0 mph 68% 0.00 in 128.00 W/m2
18:04 38.1 °F 28.5 °F 30.16 in North 13.0 mph 20.0 mph 68% 0.00 in 116.00 W/m2
18:09 38.1 °F 28.1 °F 30.16 in NNE 19.0 mph 20.0 mph 67% 0.00 in 134.00 W/m2
18:14 38.1 °F 28.1 °F 30.16 in NNE 12.0 mph 19.0 mph 67% 0.00 in 125.00 W/m2
18:19 38.2 °F 28.2 °F 30.16 in NNW 8.0 mph 19.0 mph 67% 0.00 in 109.00 W/m2
18:24 38.1 °F 27.7 °F 30.16 in NNE 10.0 mph 17.0 mph 66% 0.00 in 83.00 W/m2
18:29 38.0 °F 27.6 °F 30.16 in North 12.0 mph 19.0 mph 66% 0.00 in 74.00 W/m2
18:34 37.9 °F 27.9 °F 30.16 in North 10.0 mph 19.0 mph 67% 0.00 in 74.00 W/m2
18:39 37.8 °F 27.5 °F 30.16 in NNE 14.0 mph 18.0 mph 66% 0.00 in 72.00 W/m2
18:44 37.7 °F 27.7 °F 30.17 in North 12.0 mph 17.0 mph 67% 0.00 in 65.00 W/m2
18:49 37.5 °F 26.8 °F 30.17 in NNW 13.0 mph 17.0 mph 65% 0.00 in 62.00 W/m2
18:54 37.4 °F 26.3 °F 30.17 in North 13.0 mph 17.0 mph 64% 0.00 in 58.00 W/m2
18:59 37.3 °F 26.2 °F 30.17 in North 9.0 mph 17.0 mph 64% 0.00 in 56.00 W/m2
19:04 37.2 °F 26.5 °F 30.17 in North 9.0 mph 16.0 mph 65% 0.00 in 49.00 W/m2
19:09 37.1 °F 26.8 °F 30.17 in North 12.0 mph 16.0 mph 66% 0.00 in 51.00 W/m2
19:14 37.0 °F 26.7 °F 30.17 in North 13.0 mph 16.0 mph 66% 0.00 in 47.00 W/m2
19:19 37.0 °F 26.3 °F 30.17 in North 9.0 mph 16.0 mph 65% 0.00 in 42.00 W/m2
19:24 36.8 °F 26.5 °F 30.17 in NNW 12.0 mph 16.0 mph 66% 0.00 in 35.00 W/m2
19:29 36.7 °F 26.8 °F 30.17 in North 8.0 mph 14.0 mph 67% 0.00 in 23.00 W/m2
19:34 36.5 °F 26.6 °F 30.17 in North 9.0 mph 13.0 mph 67% 0.00 in 18.00 W/m2
19:39 36.4 °F 26.8 °F 30.17 in North 12.0 mph 12.0 mph 68% 0.00 in 16.00 W/m2
19:44 36.2 °F 26.6 °F 30.17 in North 7.0 mph 12.0 mph 68% 0.00 in 12.00 W/m2
19:49 36.1 °F 26.9 °F 30.17 in North 7.0 mph 12.0 mph 69% 0.00 in 11.00 W/m2
19:54 35.9 °F 27.1 °F 30.18 in North 7.0 mph 12.0 mph 70% 0.00 in 7.00 W/m2
19:59 35.7 °F 27.2 °F 30.18 in North 7.0 mph 12.0 mph 71% 0.00 in 5.00 W/m2
20:04 35.6 °F 27.1 °F 30.18 in North 6.0 mph 10.0 mph 71% 0.00 in 0.00 W/m2
20:09 35.4 °F 27.3 °F 30.18 in North 5.0 mph 8.0 mph 72% 0.00 in 0.00 W/m2
20:14 35.2 °F 27.1 °F 30.18 in NNW 5.0 mph 7.0 mph 72% 0.00 in 0.00 W/m2
20:19 35.1 °F 27.0 °F 30.17 in North 6.0 mph 7.0 mph 72% 0.00 in 0.00 W/m2
20:24 35.0 °F 27.2 °F 30.17 in North 3.0 mph 9.0 mph 73% 0.00 in 0.00 W/m2
20:29 34.9 °F 27.5 °F 30.18 in North 5.0 mph 9.0 mph 74% 0.00 in 0.00 W/m2
20:34 34.8 °F 27.4 °F 30.17 in North 5.0 mph 9.0 mph 74% 0.00 in 0.00 W/m2
20:39 34.7 °F 27.3 °F 30.17 in NNE 6.0 mph 6.0 mph 74% 0.00 in 0.00 W/m2
20:44 34.6 °F 27.2 °F 30.17 in North 6.0 mph 7.0 mph 74% 0.00 in 0.00 W/m2
20:49 34.5 °F 27.1 °F 30.18 in North 5.0 mph 7.0 mph 74% 0.00 in 0.00 W/m2
20:54 34.4 °F 27.0 °F 30.18 in North 5.0 mph 8.0 mph 74% 0.00 in 0.00 W/m2
20:59 34.4 °F 27.3 °F 30.18 in North 5.0 mph 8.0 mph 75% 0.00 in 0.00 W/m2
21:04 34.4 °F 27.3 °F 30.17 in North 5.0 mph 7.0 mph 75% 0.00 in 0.00 W/m2
21:09 34.3 °F 27.2 °F 30.17 in NNW 5.0 mph 8.0 mph 75% 0.00 in 0.00 W/m2
21:14 34.2 °F 27.1 °F 30.17 in North 5.0 mph 8.0 mph 75% 0.00 in 0.00 W/m2
21:19 34.2 °F 27.1 °F 30.17 in North 5.0 mph 8.0 mph 75% 0.00 in 0.00 W/m2
21:24 34.1 °F 27.3 °F 30.17 in North 4.0 mph 7.0 mph 76% 0.00 in 0.00 W/m2
21:29 34.0 °F 27.2 °F 30.17 in NNE 6.0 mph 7.0 mph 76% 0.00 in 0.00 W/m2
21:34 33.9 °F 27.4 °F 30.17 in North 5.0 mph 7.0 mph 77% 0.00 in 0.00 W/m2
21:39 33.8 °F 27.0 °F 30.17 in North 4.0 mph 7.0 mph 76% 0.00 in 0.00 W/m2
21:44 33.8 °F 27.4 °F 30.17 in North 6.0 mph 7.0 mph 77% 0.00 in 0.00 W/m2
21:49 33.7 °F 27.3 °F 30.17 in North 5.0 mph 7.0 mph 77% 0.00 in 0.00 W/m2
21:54 33.7 °F 26.9 °F 30.17 in North 4.0 mph 7.0 mph 76% 0.00 in 0.00 W/m2
21:59 33.7 °F 26.9 °F 30.17 in North 4.0 mph 6.0 mph 76% 0.00 in 0.00 W/m2
22:04 33.6 °F 26.8 °F 30.17 in North 3.0 mph 6.0 mph 76% 0.00 in 0.00 W/m2
22:09 33.5 °F 27.1 °F 30.17 in North 3.0 mph 5.0 mph 77% 0.00 in 0.00 W/m2
22:14 33.3 °F 26.9 °F 30.17 in North 3.0 mph 4.0 mph 77% 0.00 in 0.00 W/m2
22:19 33.0 °F 26.6 °F 30.17 in North 2.0 mph 4.0 mph 77% 0.00 in 0.00 W/m2
22:24 32.9 °F 26.8 °F 30.17 in North 2.0 mph 4.0 mph 78% 0.00 in 0.00 W/m2
22:29 32.7 °F 26.6 °F 30.17 in North 3.0 mph 4.0 mph 78% 0.00 in 0.00 W/m2
22:34 32.5 °F 26.4 °F 30.16 in NNE 3.0 mph 4.0 mph 78% 0.00 in 0.00 W/m2
22:39 32.4 °F 26.6 °F 30.16 in NNE 3.0 mph 4.0 mph 79% 0.00 in 0.00 W/m2
22:44 32.2 °F 26.4 °F 30.16 in NNE 4.0 mph 5.0 mph 79% 0.00 in 0.00 W/m2
22:49 32.0 °F 26.5 °F 30.16 in NE 4.0 mph 5.0 mph 80% 0.00 in 0.00 W/m2
22:54 31.9 °F 26.4 °F 30.16 in NE 3.0 mph 5.0 mph 80% 0.00 in 0.00 W/m2
22:59 31.7 °F 26.2 °F 30.16 in NE 3.0 mph 5.0 mph 80% 0.00 in 0.00 W/m2
23:04 31.5 °F 26.0 °F 30.16 in NNE 3.0 mph 5.0 mph 80% 0.00 in 0.00 W/m2
23:09 31.3 °F 26.1 °F 30.16 in NNE 4.0 mph 5.0 mph 81% 0.00 in 0.00 W/m2
23:14 31.2 °F 26.0 °F 30.16 in NE 4.0 mph 5.0 mph 81% 0.00 in 0.00 W/m2
23:19 31.2 °F 26.3 °F 30.15 in ENE 3.0 mph 5.0 mph 82% 0.00 in 0.00 W/m2
23:24 31.0 °F 26.1 °F 30.15 in ENE 3.0 mph 5.0 mph 82% 0.00 in 0.00 W/m2
23:29 31.0 °F 26.4 °F 30.15 in ENE 3.0 mph 5.0 mph 83% 0.00 in 0.00 W/m2
23:34 31.1 °F 26.5 °F 30.15 in ENE 4.0 mph 7.0 mph 83% 0.00 in 0.00 W/m2
23:39 31.1 °F 26.5 °F 30.15 in ENE 3.0 mph 7.0 mph 83% 0.00 in 0.00 W/m2
23:44 31.0 °F 26.4 °F 30.15 in ENE 3.0 mph 7.0 mph 83% 0.00 in 0.00 W/m2
23:49 31.1 °F 26.5 °F 30.15 in East 5.0 mph 7.0 mph 83% 0.00 in 0.00 W/m2
23:54 31.1 °F 26.5 °F 30.15 in East 7.0 mph 9.0 mph 83% 0.00 in 0.00 W/m2
23:59 30.8 °F 26.2 °F 30.15 in ESE 7.0 mph 9.0 mph 83% 0.00 in 0.00 W/m2
Bismarck, North Dakota, USA
Compliments of Weather Underground - 4 mb